Time,TemperatureF,DewpointF,PressureIn,WindDirection,WindDirectionDegrees,WindSpeedMPH,WindSpeedGustMPH,Humidity,HourlyPrecipIn,Conditions,Clouds,dailyrainin,SoftwareType,DateUTC
2014-01-26 00:02:00,6.8,2.3,29.47,North,0,0.0,0.0,81,0.00,,,0.00,WUHU216HW,2014-01-26 06:02:00,
2014-01-26 00:07:00,6.8,2.3,29.46,North,0,0.0,0.0,81,0.00,,,0.00,WUHU216HW,2014-01-26 06:07:00,
2014-01-26 00:12:00,6.8,2.3,29.46,North,0,0.0,0.0,81,0.00,,,0.00,WUHU216HW,2014-01-26 06:12:00,
2014-01-26 00:17:00,6.8,2.3,29.46,North,0,0.0,0.0,81,0.00,,,0.00,WUHU216HW,2014-01-26 06:17:00,
2014-01-26 00:22:00,7.0,2.4,29.46,North,0,0.0,0.0,81,0.00,,,0.00,WUHU216HW,2014-01-26 06:22:00,
2014-01-26 00:27:00,7.0,2.4,29.46,North,0,0.0,0.0,81,0.00,,,0.00,WUHU216HW,2014-01-26 06:27:00,
2014-01-26 00:32:00,7.0,2.2,29.45,North,0,0.0,0.0,80,0.00,,,0.00,WUHU216HW,2014-01-26 06:32:00,
2014-01-26 00:37:00,7.2,2.3,29.44,North,0,0.0,0.0,80,0.00,,,0.00,WUHU216HW,2014-01-26 06:37:00,
2014-01-26 00:42:00,7.2,2.6,29.44,North,0,0.0,0.0,81,0.00,,,0.00,WUHU216HW,2014-01-26 06:42:00,
2014-01-26 00:47:00,7.4,3.1,29.43,North,0,0.0,0.0,82,0.00,,,0.00,WUHU216HW,2014-01-26 06:47:00,
2014-01-26 00:52:00,7.4,2.8,29.42,North,0,0.0,0.0,81,0.00,,,0.00,WUHU216HW,2014-01-26 06:52:00,
2014-01-26 00:57:00,7.6,3.0,29.41,North,0,0.0,0.0,81,0.00,,,0.00,WUHU216HW,2014-01-26 06:57:00,
2014-01-26 01:02:00,7.6,3.0,29.41,North,0,0.0,0.0,81,0.00,,,0.00,WUHU216HW,2014-01-26 07:02:00,
2014-01-26 01:07:00,7.4,2.8,29.41,North,0,0.0,0.0,81,0.00,,,0.00,WUHU216HW,2014-01-26 07:07:00,
2014-01-26 01:12:00,7.4,2.8,29.40,North,0,0.0,0.0,81,0.00,,,0.00,WUHU216HW,2014-01-26 07:12:00,
2014-01-26 01:17:00,7.4,2.8,29.40,North,0,0.0,0.0,81,0.00,,,0.00,WUHU216HW,2014-01-26 07:17:00,
2014-01-26 01:22:00,7.4,2.8,29.39,North,0,0.0,0.0,81,0.00,,,0.00,WUHU216HW,2014-01-26 07:22:00,
2014-01-26 01:27:00,7.4,3.1,29.39,North,0,0.0,0.0,82,0.00,,,0.00,WUHU216HW,2014-01-26 07:27:00,
2014-01-26 01:32:00,7.2,2.6,29.39,North,0,0.0,0.0,81,0.00,,,0.00,WUHU216HW,2014-01-26 07:32:00,
2014-01-26 01:37:00,7.4,3.1,29.39,North,0,0.0,0.0,82,0.00,,,0.00,WUHU216HW,2014-01-26 07:37:00,
2014-01-26 01:42:00,7.2,2.9,29.39,North,0,0.0,0.0,82,0.00,,,0.00,WUHU216HW,2014-01-26 07:42:00,
2014-01-26 01:47:00,7.2,2.9,29.39,North,0,0.0,0.0,82,0.00,,,0.00,WUHU216HW,2014-01-26 07:47:00,
2014-01-26 01:52:00,7.2,2.9,29.39,North,0,0.0,0.0,82,0.00,,,0.00,WUHU216HW,2014-01-26 07:52:00,
2014-01-26 01:57:00,7.2,2.9,29.38,North,0,0.0,0.0,82,0.00,,,0.00,WUHU216HW,2014-01-26 07:57:00,
2014-01-26 02:02:00,7.2,2.9,29.39,North,0,0.0,0.0,82,0.00,,,0.00,WUHU216HW,2014-01-26 08:02:00,
2014-01-26 02:07:00,7.2,2.9,29.39,North,0,0.0,0.0,82,0.00,,,0.00,WUHU216HW,2014-01-26 08:07:00,
2014-01-26 02:12:00,7.4,3.1,29.39,North,0,0.0,0.0,82,0.00,,,0.00,WUHU216HW,2014-01-26 08:12:00,
2014-01-26 02:17:00,7.4,3.1,29.39,North,0,0.0,0.0,82,0.00,,,0.00,WUHU216HW,2014-01-26 08:17:00,
2014-01-26 02:22:00,7.4,3.1,29.39,North,0,0.0,0.0,82,0.00,,,0.00,WUHU216HW,2014-01-26 08:22:00,
2014-01-26 02:27:00,7.4,3.1,29.39,North,0,0.0,0.0,82,0.00,,,0.00,WUHU216HW,2014-01-26 08:27:00,
2014-01-26 02:32:00,7.4,3.2,29.38,North,0,0.0,0.0,83,0.00,,,0.00,WUHU216HW,2014-01-26 08:32:00,
2014-01-26 02:37:00,7.6,3.3,29.37,North,0,0.0,0.0,82,0.00,,,0.00,WUHU216HW,2014-01-26 08:37:00,
2014-01-26 02:42:00,7.4,3.1,29.36,North,0,0.0,0.0,82,0.00,,,0.00,WUHU216HW,2014-01-26 08:42:00,
2014-01-26 02:47:00,7.4,3.1,29.36,North,0,0.0,0.0,82,0.00,,,0.00,WUHU216HW,2014-01-26 08:47:00,
2014-01-26 02:52:00,7.4,3.2,29.35,North,0,0.0,0.0,83,0.00,,,0.00,WUHU216HW,2014-01-26 08:52:00,
2014-01-26 02:57:00,7.6,3.4,29.36,North,0,0.0,0.0,83,0.00,,,0.00,WUHU216HW,2014-01-26 08:57:00,
2014-01-26 03:02:00,7.6,3.3,29.38,North,0,0.0,0.0,82,0.00,,,0.00,WUHU216HW,2014-01-26 09:02:00,
2014-01-26 03:07:00,7.6,3.3,29.40,North,0,0.0,0.0,82,0.00,,,0.00,WUHU216HW,2014-01-26 09:07:00,
2014-01-26 03:12:00,7.6,3.3,29.39,North,0,0.0,0.0,82,0.00,,,0.00,WUHU216HW,2014-01-26 09:12:00,
2014-01-26 03:17:00,7.6,3.0,29.37,North,0,0.0,0.0,81,0.00,,,0.00,WUHU216HW,2014-01-26 09:17:00,
2014-01-26 03:22:00,7.6,3.0,29.37,North,0,0.0,0.0,81,0.00,,,0.00,WUHU216HW,2014-01-26 09:22:00,
2014-01-26 03:27:00,7.6,3.0,29.36,North,0,0.0,0.0,81,0.00,,,0.00,WUHU216HW,2014-01-26 09:27:00,
2014-01-26 03:32:00,7.4,2.8,29.34,North,0,0.0,0.0,81,0.00,,,0.00,WUHU216HW,2014-01-26 09:32:00,
2014-01-26 03:37:00,7.6,3.0,29.35,North,0,0.0,0.0,81,0.00,,,0.00,WUHU216HW,2014-01-26 09:37:00,
2014-01-26 03:42:00,7.6,3.3,29.36,North,0,0.0,0.0,82,0.00,,,0.00,WUHU216HW,2014-01-26 09:42:00,
2014-01-26 03:47:00,7.6,3.0,29.37,North,0,0.0,0.0,81,0.00,,,0.00,WUHU216HW,2014-01-26 09:47:00,
2014-01-26 03:52:00,7.6,3.0,29.37,North,0,0.0,0.0,81,0.00,,,0.00,WUHU216HW,2014-01-26 09:52:00,
2014-01-26 03:57:00,7.6,3.0,29.36,North,0,0.0,0.0,81,0.00,,,0.00,WUHU216HW,2014-01-26 09:57:00,
2014-01-26 04:02:00,7.6,3.0,29.36,North,0,0.0,0.0,81,0.00,,,0.00,WUHU216HW,2014-01-26 10:02:00,
2014-01-26 04:07:00,7.6,2.7,29.36,North,0,0.0,0.0,80,0.00,,,0.00,WUHU216HW,2014-01-26 10:07:00,
2014-01-26 04:12:00,7.7,2.9,29.37,North,0,0.0,0.0,80,0.00,,,0.00,WUHU216HW,2014-01-26 10:12:00,
2014-01-26 04:17:00,7.7,2.9,29.37,North,0,0.0,0.0,80,0.00,,,0.00,WUHU216HW,2014-01-26 10:17:00,
2014-01-26 04:22:00,7.7,2.9,29.37,North,0,0.0,0.0,80,0.00,,,0.00,WUHU216HW,2014-01-26 10:22:00,
2014-01-26 04:27:00,7.9,3.1,29.38,North,0,0.0,0.0,80,0.00,,,0.00,WUHU216HW,2014-01-26 10:27:00,
2014-01-26 04:32:00,8.1,3.2,29.39,North,0,0.0,0.0,80,0.00,,,0.00,WUHU216HW,2014-01-26 10:32:00,
2014-01-26 04:37:00,8.1,3.2,29.38,North,0,0.0,0.0,80,0.00,,,0.00,WUHU216HW,2014-01-26 10:37:00,
2014-01-26 04:42:00,8.1,3.2,29.36,North,0,0.0,0.0,80,0.00,,,0.00,WUHU216HW,2014-01-26 10:42:00,
2014-01-26 04:47:00,7.9,3.1,29.35,North,0,0.0,0.0,80,0.00,,,0.00,WUHU216HW,2014-01-26 10:47:00,
2014-01-26 04:52:00,7.7,2.9,29.35,North,0,0.0,0.0,80,0.00,,,0.00,WUHU216HW,2014-01-26 10:52:00,
2014-01-26 04:57:00,7.7,2.9,29.36,North,0,0.0,0.0,80,0.00,,,0.00,WUHU216HW,2014-01-26 10:57:00,
2014-01-26 05:02:00,7.9,3.1,29.36,North,0,0.0,0.0,80,0.00,,,0.00,WUHU216HW,2014-01-26 11:02:00,
2014-01-26 05:07:00,7.9,3.1,29.36,North,0,0.0,0.0,80,0.00,,,0.00,WUHU216HW,2014-01-26 11:07:00,
2014-01-26 05:12:00,7.7,2.9,29.36,North,0,0.0,0.0,80,0.00,,,0.00,WUHU216HW,2014-01-26 11:12:00,
2014-01-26 05:17:00,7.7,2.9,29.36,North,0,0.0,0.0,80,0.00,,,0.00,WUHU216HW,2014-01-26 11:17:00,
2014-01-26 05:22:00,7.9,3.1,29.35,North,0,0.0,0.0,80,0.00,,,0.00,WUHU216HW,2014-01-26 11:22:00,
2014-01-26 05:27:00,7.9,3.1,29.36,North,0,0.0,0.0,80,0.00,,,0.00,WUHU216HW,2014-01-26 11:27:00,
2014-01-26 05:32:00,7.9,3.1,29.36,North,0,0.0,0.0,80,0.00,,,0.00,WUHU216HW,2014-01-26 11:32:00,
2014-01-26 05:37:00,7.9,3.1,29.36,North,0,0.0,0.0,80,0.00,,,0.00,WUHU216HW,2014-01-26 11:37:00,
2014-01-26 05:42:00,7.7,2.9,29.36,North,0,0.0,0.0,80,0.00,,,0.00,WUHU216HW,2014-01-26 11:42:00,
2014-01-26 05:47:00,7.6,2.7,29.35,North,0,0.0,0.0,80,0.00,,,0.00,WUHU216HW,2014-01-26 11:47:00,
2014-01-26 05:52:00,7.6,2.7,29.35,North,0,0.0,0.0,80,0.00,,,0.00,WUHU216HW,2014-01-26 11:52:00,
2014-01-26 05:57:00,7.6,2.7,29.35,North,0,0.0,0.0,80,0.00,,,0.00,WUHU216HW,2014-01-26 11:57:00,
2014-01-26 06:02:00,7.9,3.1,29.35,North,0,0.0,0.0,80,0.00,,,0.00,WUHU216HW,2014-01-26 12:02:00,
2014-01-26 06:07:00,7.9,3.1,29.34,North,0,0.0,0.0,80,0.00,,,0.00,WUHU216HW,2014-01-26 12:07:00,
2014-01-26 06:12:00,7.9,3.1,29.34,North,0,0.0,0.0,80,0.00,,,0.00,WUHU216HW,2014-01-26 12:12:00,
2014-01-26 06:17:00,7.7,2.9,29.34,North,0,0.0,0.0,80,0.00,,,0.00,WUHU216HW,2014-01-26 12:17:00,
2014-01-26 06:22:00,7.9,2.8,29.36,North,0,0.0,0.0,79,0.00,,,0.00,WUHU216HW,2014-01-26 12:22:00,
2014-01-26 06:27:00,8.1,3.0,29.36,North,0,0.0,0.0,79,0.00,,,0.00,WUHU216HW,2014-01-26 12:27:00,
2014-01-26 06:32:00,8.3,3.4,29.37,North,0,0.0,0.0,80,0.00,,,0.00,WUHU216HW,2014-01-26 12:32:00,
2014-01-26 06:37:00,8.1,3.2,29.37,North,0,0.0,0.0,80,0.00,,,0.00,WUHU216HW,2014-01-26 12:37:00,
2014-01-26 06:42:00,8.1,3.5,29.38,North,0,0.0,0.0,81,0.00,,,0.00,WUHU216HW,2014-01-26 12:42:00,
2014-01-26 06:47:00,8.3,3.4,29.38,North,0,0.0,0.0,80,0.00,,,0.00,WUHU216HW,2014-01-26 12:47:00,
2014-01-26 06:52:00,8.1,3.2,29.39,North,0,0.0,0.0,80,0.00,,,0.00,WUHU216HW,2014-01-26 12:52:00,
2014-01-26 06:57:00,8.1,3.2,29.38,North,0,0.0,0.0,80,0.00,,,0.00,WUHU216HW,2014-01-26 12:57:00,
2014-01-26 07:02:00,8.1,3.5,29.38,North,0,0.0,0.0,81,0.00,,,0.00,WUHU216HW,2014-01-26 13:02:00,
2014-01-26 07:07:00,8.1,3.5,29.38,North,0,0.0,0.0,81,0.00,,,0.00,WUHU216HW,2014-01-26 13:07:00,
2014-01-26 07:12:00,7.9,3.3,29.38,North,0,0.0,0.0,81,0.00,,,0.00,WUHU216HW,2014-01-26 13:12:00,
2014-01-26 07:17:00,7.7,3.2,29.39,North,0,0.0,0.0,81,0.00,,,0.00,WUHU216HW,2014-01-26 13:17:00,
2014-01-26 07:22:00,7.7,3.2,29.38,North,0,0.0,0.0,81,0.00,,,0.00,WUHU216HW,2014-01-26 13:22:00,
2014-01-26 07:27:00,7.7,3.2,29.38,North,0,0.0,0.0,81,0.00,,,0.00,WUHU216HW,2014-01-26 13:27:00,
2014-01-26 07:32:00,7.7,3.2,29.38,North,0,0.0,0.0,81,0.00,,,0.00,WUHU216HW,2014-01-26 13:32:00,
2014-01-26 07:37:00,7.7,3.4,29.38,North,0,0.0,0.0,82,0.00,,,0.00,WUHU216HW,2014-01-26 13:37:00,
2014-01-26 07:42:00,7.7,3.4,29.38,North,0,0.0,0.0,82,0.00,,,0.00,WUHU216HW,2014-01-26 13:42:00,
2014-01-26 07:47:00,7.9,3.6,29.37,North,0,0.0,0.0,82,0.00,,,0.00,WUHU216HW,2014-01-26 13:47:00,
2014-01-26 07:52:00,7.9,3.6,29.37,North,0,0.0,0.0,82,0.00,,,0.00,WUHU216HW,2014-01-26 13:52:00,
2014-01-26 07:57:00,7.9,3.8,29.37,North,0,0.0,0.0,83,0.00,,,0.00,WUHU216HW,2014-01-26 13:57:00,
2014-01-26 08:02:00,8.1,4.0,29.37,North,0,0.0,0.0,83,0.00,,,0.00,WUHU216HW,2014-01-26 14:02:00,
2014-01-26 08:07:00,8.3,4.1,29.37,North,0,0.0,0.0,83,0.00,,,0.00,WUHU216HW,2014-01-26 14:07:00,
2014-01-26 08:12:00,8.3,4.1,29.36,North,0,0.0,0.0,83,0.00,,,0.00,WUHU216HW,2014-01-26 14:12:00,
2014-01-26 08:17:00,8.3,4.1,29.36,North,0,0.0,0.0,83,0.00,,,0.00,WUHU216HW,2014-01-26 14:17:00,
2014-01-26 08:22:00,8.3,4.4,29.36,North,0,0.0,0.0,84,0.00,,,0.00,WUHU216HW,2014-01-26 14:22:00,
2014-01-26 08:27:00,8.5,4.6,29.36,North,0,0.0,0.0,84,0.00,,,0.00,WUHU216HW,2014-01-26 14:27:00,
2014-01-26 08:32:00,8.6,4.8,29.36,North,0,0.0,0.0,84,0.00,,,0.00,WUHU216HW,2014-01-26 14:32:00,
2014-01-26 08:37:00,9.0,5.1,29.36,North,0,0.0,0.0,84,0.00,,,0.00,WUHU216HW,2014-01-26 14:37:00,
2014-01-26 08:42:00,9.2,5.6,29.36,North,0,0.0,0.0,85,0.00,,,0.00,WUHU216HW,2014-01-26 14:42:00,
2014-01-26 08:47:00,9.2,5.6,29.36,North,0,0.0,0.0,85,0.00,,,0.00,WUHU216HW,2014-01-26 14:47:00,
2014-01-26 08:52:00,9.4,5.8,29.37,North,0,0.0,0.0,85,0.00,,,0.00,WUHU216HW,2014-01-26 14:52:00,
2014-01-26 08:57:00,9.5,5.7,29.37,North,0,0.0,0.0,84,0.00,,,0.00,WUHU216HW,2014-01-26 14:57:00,
2014-01-26 09:02:00,9.7,5.8,29.37,North,0,0.0,0.0,84,0.00,,,0.00,WUHU216HW,2014-01-26 15:02:00,
2014-01-26 09:07:00,10.1,6.1,29.36,North,0,0.0,0.0,84,0.00,,,0.00,WUHU216HW,2014-01-26 15:07:00,
2014-01-26 09:12:00,10.3,6.0,29.36,North,0,0.0,0.0,83,0.00,,,0.00,WUHU216HW,2014-01-26 15:12:00,
2014-01-26 09:17:00,10.6,6.4,29.36,North,0,0.0,0.0,83,0.00,,,0.00,WUHU216HW,2014-01-26 15:17:00,
2014-01-26 09:22:00,11.5,7.3,29.37,North,0,0.0,0.0,83,0.00,,,0.00,WUHU216HW,2014-01-26 15:22:00,
2014-01-26 09:27:00,12.6,8.1,29.37,North,0,0.0,0.0,82,0.00,,,0.00,WUHU216HW,2014-01-26 15:27:00,
2014-01-26 09:32:00,12.4,7.7,29.37,North,0,0.0,0.0,81,0.00,,,0.00,WUHU216HW,2014-01-26 15:32:00,
2014-01-26 09:37:00,12.6,7.8,29.37,North,0,0.0,0.0,81,0.00,,,0.00,WUHU216HW,2014-01-26 15:37:00,
2014-01-26 09:42:00,12.6,7.8,29.37,North,0,0.0,0.0,81,0.00,,,0.00,WUHU216HW,2014-01-26 15:42:00,
2014-01-26 09:47:00,13.1,8.1,29.36,North,0,0.0,0.0,80,0.00,,,0.00,WUHU216HW,2014-01-26 15:47:00,
2014-01-26 09:52:00,13.3,8.3,29.37,North,0,0.0,0.0,80,0.00,,,0.00,WUHU216HW,2014-01-26 15:52:00,
2014-01-26 09:57:00,13.5,8.5,29.36,North,0,0.0,0.0,80,0.00,,,0.00,WUHU216HW,2014-01-26 15:57:00,
2014-01-26 10:02:00,13.7,8.4,29.36,North,0,0.0,0.0,79,0.00,,,0.00,WUHU216HW,2014-01-26 16:02:00,
2014-01-26 10:07:00,14.0,8.7,29.37,North,0,0.0,0.0,79,0.00,,,0.00,WUHU216HW,2014-01-26 16:07:00,
2014-01-26 10:12:00,14.0,8.5,29.37,North,0,0.0,0.0,78,0.00,,,0.00,WUHU216HW,2014-01-26 16:12:00,
2014-01-26 10:17:00,14.2,8.7,29.37,North,0,0.0,0.0,78,0.00,,,0.00,WUHU216HW,2014-01-26 16:17:00,
2014-01-26 10:22:00,14.8,8.8,29.38,North,0,0.0,0.0,77,0.00,,,0.00,WUHU216HW,2014-01-26 16:22:00,
2014-01-26 10:27:00,14.8,8.8,29.38,North,0,0.0,0.0,77,0.00,,,0.00,WUHU216HW,2014-01-26 16:27:00,
2014-01-26 10:32:00,14.9,9.0,29.39,North,0,0.0,0.0,77,0.00,,,0.00,WUHU216HW,2014-01-26 16:32:00,
2014-01-26 10:37:00,15.3,9.4,29.39,North,0,0.0,0.0,77,0.00,,,0.00,WUHU216HW,2014-01-26 16:37:00,
2014-01-26 10:42:00,15.5,9.3,29.39,North,0,0.0,0.0,76,0.00,,,0.00,WUHU216HW,2014-01-26 16:42:00,
2014-01-26 10:47:00,15.8,9.9,29.38,North,0,0.0,0.0,77,0.00,,,0.00,WUHU216HW,2014-01-26 16:47:00,
2014-01-26 10:52:00,16.2,10.3,29.39,North,0,0.0,0.0,77,0.00,,,0.00,WUHU216HW,2014-01-26 16:52:00,
2014-01-26 10:57:00,16.4,10.1,29.39,North,0,0.0,0.0,76,0.00,,,0.00,WUHU216HW,2014-01-26 16:57:00,
2014-01-26 11:02:00,16.6,10.0,29.38,North,0,0.0,0.0,75,0.00,,,0.00,WUHU216HW,2014-01-26 17:02:00,
2014-01-26 11:07:00,16.6,10.0,29.39,North,0,0.0,0.0,75,0.00,,,0.00,WUHU216HW,2014-01-26 17:07:00,
2014-01-26 11:12:00,16.9,10.0,29.39,North,0,0.0,0.0,74,0.00,,,0.00,WUHU216HW,2014-01-26 17:12:00,
2014-01-26 11:17:00,17.3,10.4,29.39,North,0,0.0,0.0,74,0.00,,,0.00,WUHU216HW,2014-01-26 17:17:00,
2014-01-26 11:22:00,17.5,10.5,29.38,North,0,0.0,0.0,74,0.00,,,0.00,WUHU216HW,2014-01-26 17:22:00,
2014-01-26 11:27:00,17.6,10.7,29.38,North,0,0.0,0.0,74,0.00,,,0.00,WUHU216HW,2014-01-26 17:27:00,
2014-01-26 11:32:00,18.0,10.7,29.38,North,0,0.0,0.0,73,0.00,,,0.00,WUHU216HW,2014-01-26 17:32:00,
2014-01-26 11:37:00,18.4,11.1,29.37,North,0,0.0,0.0,73,0.00,,,0.00,WUHU216HW,2014-01-26 17:37:00,
2014-01-26 11:42:00,18.7,11.1,29.38,North,0,0.0,0.0,72,0.00,,,0.00,WUHU216HW,2014-01-26 17:42:00,
2014-01-26 11:47:00,18.9,11.0,29.38,North,0,0.0,0.0,71,0.00,,,0.00,WUHU216HW,2014-01-26 17:47:00,
2014-01-26 11:52:00,18.7,10.5,29.38,North,0,0.0,0.0,70,0.00,,,0.00,WUHU216HW,2014-01-26 17:52:00,
2014-01-26 11:57:00,18.4,10.2,29.39,North,0,0.0,0.0,70,0.00,,,0.00,WUHU216HW,2014-01-26 17:57:00,
2014-01-26 12:02:00,18.2,9.7,29.39,North,0,0.0,0.0,69,0.00,,,0.00,WUHU216HW,2014-01-26 18:02:00,
2014-01-26 12:07:00,18.2,9.7,29.39,North,0,0.0,0.0,69,0.00,,,0.00,WUHU216HW,2014-01-26 18:07:00,
2014-01-26 12:12:00,18.2,10.0,29.39,North,0,0.0,0.0,70,0.00,,,0.00,WUHU216HW,2014-01-26 18:12:00,
2014-01-26 12:17:00,18.4,9.8,29.39,North,0,0.0,0.0,69,0.00,,,0.00,WUHU216HW,2014-01-26 18:17:00,
2014-01-26 12:22:00,18.7,9.8,29.38,North,0,0.0,0.0,68,0.00,,,0.00,WUHU216HW,2014-01-26 18:22:00,
2014-01-26 12:27:00,19.1,9.5,29.38,North,0,0.0,0.0,66,0.00,,,0.00,WUHU216HW,2014-01-26 18:27:00,
2014-01-26 12:32:00,18.7,8.8,29.39,North,0,0.0,0.0,65,0.00,,,0.00,WUHU216HW,2014-01-26 18:32:00,
2014-01-26 12:37:00,18.4,8.5,29.39,North,0,0.0,0.0,65,0.00,,,0.00,WUHU216HW,2014-01-26 18:37:00,
2014-01-26 12:42:00,18.4,8.8,29.40,North,0,0.0,0.0,66,0.00,,,0.00,WUHU216HW,2014-01-26 18:42:00,
2014-01-26 12:47:00,19.4,9.5,29.40,North,0,0.0,0.0,65,0.00,,,0.00,WUHU216HW,2014-01-26 18:47:00,
2014-01-26 12:52:00,19.1,7.7,29.40,North,0,0.0,0.0,61,0.00,,,0.00,WUHU216HW,2014-01-26 18:52:00,
2014-01-26 12:57:00,18.7,7.5,29.40,North,0,0.0,0.0,61,0.00,,,0.00,WUHU216HW,2014-01-26 18:57:00,
2014-01-26 13:02:00,19.1,8.1,29.40,North,0,0.0,0.0,62,0.00,,,0.00,WUHU216HW,2014-01-26 19:02:00,
2014-01-26 13:07:00,20.0,8.3,29.41,North,0,0.0,0.0,60,0.00,,,0.00,WUHU216HW,2014-01-26 19:07:00,
2014-01-26 13:12:00,20.2,7.7,29.41,North,0,0.0,0.0,58,0.00,,,0.00,WUHU216HW,2014-01-26 19:12:00,
2014-01-26 13:17:00,20.5,7.6,29.41,North,0,0.0,0.0,57,0.00,,,0.00,WUHU216HW,2014-01-26 19:17:00,
2014-01-26 13:22:00,20.3,6.7,29.42,North,0,0.0,0.0,55,0.00,,,0.00,WUHU216HW,2014-01-26 19:22:00,
2014-01-26 13:27:00,20.0,6.7,29.43,North,0,0.0,0.0,56,0.00,,,0.00,WUHU216HW,2014-01-26 19:27:00,
2014-01-26 13:32:00,19.4,6.1,29.43,North,0,0.0,0.0,56,0.00,,,0.00,WUHU216HW,2014-01-26 19:32:00,
2014-01-26 13:37:00,18.9,6.0,29.43,North,0,0.0,0.0,57,0.00,,,0.00,WUHU216HW,2014-01-26 19:37:00,
2014-01-26 13:42:00,19.3,6.0,29.44,North,0,0.0,0.0,56,0.00,,,0.00,WUHU216HW,2014-01-26 19:42:00,
2014-01-26 13:47:00,19.1,5.4,29.44,North,0,0.0,0.0,55,0.00,,,0.00,WUHU216HW,2014-01-26 19:47:00,
2014-01-26 13:53:00,19.1,4.7,29.45,North,0,0.0,0.0,53,0.00,,,0.00,WUHU216HW,2014-01-26 19:53:00,
2014-01-26 13:58:00,18.7,4.0,29.45,North,0,0.0,0.0,52,0.00,,,0.00,WUHU216HW,2014-01-26 19:58:00,
2014-01-26 14:03:00,18.7,3.5,29.46,North,0,0.0,0.0,51,0.00,,,0.00,WUHU216HW,2014-01-26 20:03:00,
2014-01-26 14:08:00,18.7,3.5,29.46,North,0,0.0,0.0,51,0.00,,,0.00,WUHU216HW,2014-01-26 20:08:00,
2014-01-26 14:13:00,18.9,3.7,29.47,North,0,0.0,0.0,51,0.00,,,0.00,WUHU216HW,2014-01-26 20:13:00,
2014-01-26 14:18:00,18.4,3.3,29.47,North,0,0.0,0.0,51,0.00,,,0.00,WUHU216HW,2014-01-26 20:18:00,
2014-01-26 14:23:00,17.8,2.7,29.48,North,0,0.0,0.0,51,0.00,,,0.00,WUHU216HW,2014-01-26 20:23:00,
2014-01-26 14:28:00,17.6,2.5,29.48,North,0,0.0,0.0,51,0.00,,,0.00,WUHU216HW,2014-01-26 20:28:00,
2014-01-26 14:33:00,17.6,2.5,29.48,North,0,0.0,0.0,51,0.00,,,0.00,WUHU216HW,2014-01-26 20:33:00,
2014-01-26 14:38:00,17.1,2.1,29.49,North,0,0.0,0.0,51,0.00,,,0.00,WUHU216HW,2014-01-26 20:38:00,
2014-01-26 14:43:00,17.1,2.1,29.50,North,0,0.0,0.0,51,0.00,,,0.00,WUHU216HW,2014-01-26 20:43:00,
2014-01-26 14:48:00,17.3,3.0,29.50,North,0,0.0,0.0,53,0.00,,,0.00,WUHU216HW,2014-01-26 20:48:00,
2014-01-26 14:53:00,16.7,2.5,29.51,North,0,0.0,0.0,53,0.00,,,0.00,WUHU216HW,2014-01-26 20:53:00,
2014-01-26 14:58:00,16.0,1.8,29.51,North,0,0.0,0.0,53,0.00,,,0.00,WUHU216HW,2014-01-26 20:58:00,
2014-01-26 15:03:00,15.3,1.2,29.52,North,0,0.0,0.0,53,0.00,,,0.00,WUHU216HW,2014-01-26 21:03:00,
2014-01-26 15:08:00,15.1,1.0,29.52,North,0,0.0,0.0,53,0.00,,,0.00,WUHU216HW,2014-01-26 21:08:00,
2014-01-26 15:13:00,14.4,-0.1,29.52,North,0,0.0,0.0,52,0.00,,,0.00,WUHU216HW,2014-01-26 21:13:00,
2014-01-26 15:18:00,13.7,-1.2,29.53,North,0,0.0,0.0,51,0.00,,,0.00,WUHU216HW,2014-01-26 21:18:00,
2014-01-26 15:23:00,13.1,-0.9,29.54,North,0,0.0,0.0,53,0.00,,,0.00,WUHU216HW,2014-01-26 21:23:00,
2014-01-26 15:28:00,11.9,-1.7,29.54,North,0,0.0,0.0,54,0.00,,,0.00,WUHU216HW,2014-01-26 21:28:00,
2014-01-26 15:33:00,11.2,-2.0,29.55,North,0,0.0,0.0,55,0.00,,,0.00,WUHU216HW,2014-01-26 21:33:00,
2014-01-26 15:38:00,10.1,-3.3,29.56,North,0,0.0,0.0,54,0.00,,,0.00,WUHU216HW,2014-01-26 21:38:00,
2014-01-26 15:43:00,9.4,-3.7,29.56,North,0,0.0,0.0,55,0.00,,,0.00,WUHU216HW,2014-01-26 21:43:00,
2014-01-26 15:48:00,8.8,-3.9,29.57,North,0,0.0,0.0,56,0.00,,,0.00,WUHU216HW,2014-01-26 21:48:00,
2014-01-26 15:53:00,8.8,-3.9,29.57,North,0,0.0,0.0,56,0.00,,,0.00,WUHU216HW,2014-01-26 21:53:00,
2014-01-26 16:00:00,7.6,-4.6,29.58,North,0,0.0,0.0,57,0.00,,,0.00,WUHU216HW,2014-01-26 22:00:00,
2014-01-26 16:05:00,6.8,-4.1,29.59,North,0,0.0,0.0,60,0.00,,,0.00,WUHU216HW,2014-01-26 22:05:00,
2014-01-26 16:10:00,6.5,-4.5,29.59,North,0,0.0,0.0,60,0.00,,,0.00,WUHU216HW,2014-01-26 22:10:00,
2014-01-26 16:15:00,6.1,-4.5,29.60,North,0,0.0,0.0,61,0.00,,,0.00,WUHU216HW,2014-01-26 22:15:00,
2014-01-26 16:20:00,5.8,-4.6,29.61,North,0,0.0,0.0,62,0.00,,,0.00,WUHU216HW,2014-01-26 22:20:00,
2014-01-26 16:25:00,5.2,-5.8,29.61,North,0,0.0,0.0,60,0.00,,,0.00,WUHU216HW,2014-01-26 22:25:00,
2014-01-26 16:30:00,4.7,-6.3,29.62,North,0,0.0,0.0,60,0.00,,,0.00,WUHU216HW,2014-01-26 22:30:00,
2014-01-26 16:35:00,4.5,-6.4,29.63,North,0,0.0,0.0,60,0.00,,,0.00,WUHU216HW,2014-01-26 22:35:00,
2014-01-26 16:40:00,4.5,-6.4,29.63,North,0,0.0,0.0,60,0.00,,,0.00,WUHU216HW,2014-01-26 22:40:00,
2014-01-26 16:45:00,4.5,-6.4,29.63,North,0,0.0,0.0,60,0.00,,,0.00,WUHU216HW,2014-01-26 22:45:00,
2014-01-26 17:00:00,3.2,-7.2,29.65,North,0,0.0,0.0,61,0.00,,,0.00,WUHU216HW,2014-01-26 23:00:00,
2014-01-26 17:05:00,3.2,-7.2,29.65,North,0,0.0,0.0,61,0.00,,,0.00,WUHU216HW,2014-01-26 23:05:00,
2014-01-26 18:00:00,2.2,-6.6,29.72,North,0,0.0,0.0,66,0.00,,,0.00,WUHU216HW,2014-01-27 00:00:00,
2014-01-26 18:05:00,1.8,-7.0,29.73,North,0,0.0,0.0,66,0.00,,,0.00,WUHU216HW,2014-01-27 00:05:00,
2014-01-26 18:10:00,1.8,-7.4,29.74,North,0,0.0,0.0,65,0.00,,,0.00,WUHU216HW,2014-01-27 00:10:00,
2014-01-26 18:15:00,1.4,-7.7,29.74,North,0,0.0,0.0,65,0.00,,,0.00,WUHU216HW,2014-01-27 00:15:00,
2014-01-26 18:20:00,1.3,-7.5,29.75,North,0,0.0,0.0,66,0.00,,,0.00,WUHU216HW,2014-01-27 00:20:00,
2014-01-26 18:25:00,1.1,-7.7,29.75,North,0,0.0,0.0,66,0.00,,,0.00,WUHU216HW,2014-01-27 00:25:00,
2014-01-26 18:30:00,1.1,-7.7,29.76,North,0,0.0,0.0,66,0.00,,,0.00,WUHU216HW,2014-01-27 00:30:00,
2014-01-26 18:35:00,0.9,-7.9,29.76,North,0,0.0,0.0,66,0.00,,,0.00,WUHU216HW,2014-01-27 00:35:00,
2014-01-26 18:40:00,0.9,-7.9,29.77,North,0,0.0,0.0,66,0.00,,,0.00,WUHU216HW,2014-01-27 00:40:00,
2014-01-26 18:45:00,0.7,-8.1,29.78,North,0,0.0,0.0,66,0.00,,,0.00,WUHU216HW,2014-01-27 00:45:00,
2014-01-26 18:50:00,0.7,-8.1,29.78,North,0,0.0,0.0,66,0.00,,,0.00,WUHU216HW,2014-01-27 00:50:00,
2014-01-26 18:55:00,0.5,-8.3,29.79,North,0,0.0,0.0,66,0.00,,,0.00,WUHU216HW,2014-01-27 00:55:00,
2014-01-26 19:00:00,0.5,-8.3,29.80,North,0,0.0,0.0,66,0.00,,,0.00,WUHU216HW,2014-01-27 01:00:00,
2014-01-26 19:05:00,0.4,-8.1,29.80,North,0,0.0,0.0,67,0.00,,,0.00,WUHU216HW,2014-01-27 01:05:00,
2014-01-26 19:10:00,0.4,-8.1,29.81,North,0,0.0,0.0,67,0.00,,,0.00,WUHU216HW,2014-01-27 01:10:00,
2014-01-26 19:15:00,0.4,-8.1,29.81,North,0,0.0,0.0,67,0.00,,,0.00,WUHU216HW,2014-01-27 01:15:00,
2014-01-26 19:20:00,0.2,-8.0,29.82,North,0,0.0,0.0,68,0.00,,,0.00,WUHU216HW,2014-01-27 01:20:00,
2014-01-26 19:25:00,0.2,-8.0,29.82,North,0,0.0,0.0,68,0.00,,,0.00,WUHU216HW,2014-01-27 01:25:00,
2014-01-26 19:30:00,-0.2,-8.6,29.83,North,0,0.0,0.0,67,0.00,,,0.00,WUHU216HW,2014-01-27 01:30:00,
2014-01-26 19:35:00,-0.2,-8.4,29.83,North,0,0.0,0.0,68,0.00,,,0.00,WUHU216HW,2014-01-27 01:35:00,
2014-01-26 19:40:00,-0.4,-8.5,29.84,North,0,0.0,0.0,68,0.00,,,0.00,WUHU216HW,2014-01-27 01:40:00,
2014-01-26 19:45:00,-0.4,-8.2,29.85,North,0,0.0,0.0,69,0.00,,,0.00,WUHU216HW,2014-01-27 01:45:00,
2014-01-26 19:50:00,-0.4,-8.2,29.85,North,0,0.0,0.0,69,0.00,,,0.00,WUHU216HW,2014-01-27 01:50:00,
2014-01-26 19:55:00,-0.4,-8.2,29.86,North,0,0.0,0.0,69,0.00,,,0.00,WUHU216HW,2014-01-27 01:55:00,
2014-01-26 20:00:00,-0.5,-8.7,29.86,North,0,0.0,0.0,68,0.00,,,0.00,WUHU216HW,2014-01-27 02:00:00,
2014-01-26 20:05:00,-0.7,-8.8,29.87,North,0,0.0,0.0,68,0.00,,,0.00,WUHU216HW,2014-01-27 02:05:00,
2014-01-26 20:10:00,-0.7,-8.8,29.87,North,0,0.0,0.0,68,0.00,,,0.00,WUHU216HW,2014-01-27 02:10:00,
2014-01-26 20:15:00,-0.9,-9.0,29.87,North,0,0.0,0.0,68,0.00,,,0.00,WUHU216HW,2014-01-27 02:15:00,
2014-01-26 20:20:00,-1.1,-9.2,29.87,North,0,0.0,0.0,68,0.00,,,0.00,WUHU216HW,2014-01-27 02:20:00,
2014-01-26 20:25:00,-1.1,-9.2,29.88,North,0,0.0,0.0,68,0.00,,,0.00,WUHU216HW,2014-01-27 02:25:00,
2014-01-26 20:30:00,-1.1,-9.2,29.88,North,0,0.0,0.0,68,0.00,,,0.00,WUHU216HW,2014-01-27 02:30:00,
2014-01-26 20:35:00,-1.3,-9.6,29.88,North,0,0.0,0.0,67,0.00,,,0.00,WUHU216HW,2014-01-27 02:35:00,
2014-01-26 20:40:00,-1.4,-9.8,29.89,North,0,0.0,0.0,67,0.00,,,0.00,WUHU216HW,2014-01-27 02:40:00,
2014-01-26 20:45:00,-1.4,-9.5,29.89,North,0,0.0,0.0,68,0.00,,,0.00,WUHU216HW,2014-01-27 02:45:00,
2014-01-26 20:50:00,-1.4,-9.5,29.90,North,0,0.0,0.0,68,0.00,,,0.00,WUHU216HW,2014-01-27 02:50:00,
2014-01-26 20:55:00,-1.6,-10.0,29.90,North,0,0.0,0.0,67,0.00,,,0.00,WUHU216HW,2014-01-27 02:55:00,
2014-01-26 21:00:00,-1.8,-10.2,29.91,North,0,0.0,0.0,67,0.00,,,0.00,WUHU216HW,2014-01-27 03:00:00,
2014-01-26 21:05:00,-1.8,-10.2,29.91,North,0,0.0,0.0,67,0.00,,,0.00,WUHU216HW,2014-01-27 03:05:00,
2014-01-26 21:10:00,-2.0,-10.3,29.91,North,0,0.0,0.0,67,0.00,,,0.00,WUHU216HW,2014-01-27 03:10:00,
2014-01-26 21:15:00,-2.2,-10.2,29.92,North,0,0.0,0.0,68,0.00,,,0.00,WUHU216HW,2014-01-27 03:15:00,
2014-01-26 21:20:00,-2.2,-10.2,29.92,North,0,0.0,0.0,68,0.00,,,0.00,WUHU216HW,2014-01-27 03:20:00,
2014-01-26 21:25:00,-2.3,-10.7,29.93,North,0,0.0,0.0,67,0.00,,,0.00,WUHU216HW,2014-01-27 03:25:00,
2014-01-26 21:30:00,-2.5,-10.9,29.93,North,0,0.0,0.0,67,0.00,,,0.00,WUHU216HW,2014-01-27 03:30:00,
2014-01-26 21:35:00,-2.5,-10.9,29.94,North,0,0.0,0.0,67,0.00,,,0.00,WUHU216HW,2014-01-27 03:35:00,
2014-01-26 21:40:00,-2.5,-10.9,29.94,North,0,0.0,0.0,67,0.00,,,0.00,WUHU216HW,2014-01-27 03:40:00,
2014-01-26 21:45:00,-2.7,-11.1,29.95,North,0,0.0,0.0,67,0.00,,,0.00,WUHU216HW,2014-01-27 03:45:00,
2014-01-26 21:50:00,-3.1,-11.4,29.95,North,0,0.0,0.0,67,0.00,,,0.00,WUHU216HW,2014-01-27 03:50:00,
2014-01-26 21:55:00,-3.2,-11.5,29.95,North,0,0.0,0.0,67,0.00,,,0.00,WUHU216HW,2014-01-27 03:55:00,
2014-01-26 22:00:00,-3.2,-11.5,29.95,North,0,0.0,0.0,67,0.00,,,0.00,WUHU216HW,2014-01-27 04:00:00,
2014-01-26 22:05:00,-3.2,-11.5,29.96,North,0,0.0,0.0,67,0.00,,,0.00,WUHU216HW,2014-01-27 04:05:00,
2014-01-26 22:10:00,-3.4,-11.7,29.96,North,0,0.0,0.0,67,0.00,,,0.00,WUHU216HW,2014-01-27 04:10:00,
2014-01-26 22:15:00,-3.6,-12.2,29.96,North,0,0.0,0.0,66,0.00,,,0.00,WUHU216HW,2014-01-27 04:15:00,
2014-01-26 22:20:00,-3.8,-12.4,29.97,North,0,0.0,0.0,66,0.00,,,0.00,WUHU216HW,2014-01-27 04:20:00,
2014-01-26 22:25:00,-4.0,-12.9,29.97,North,0,0.0,0.0,65,0.00,,,0.00,WUHU216HW,2014-01-27 04:25:00,
2014-01-26 22:30:00,-4.1,-12.8,29.98,North,0,0.0,0.0,66,0.00,,,0.00,WUHU216HW,2014-01-27 04:30:00,
2014-01-26 22:35:00,-4.3,-13.0,29.98,North,0,0.0,0.0,66,0.00,,,0.00,WUHU216HW,2014-01-27 04:35:00,
2014-01-26 22:40:00,-4.7,-13.3,29.98,North,0,0.0,0.0,66,0.00,,,0.00,WUHU216HW,2014-01-27 04:40:00,
2014-01-26 22:45:00,-4.7,-13.6,29.99,North,0,0.0,0.0,65,0.00,,,0.00,WUHU216HW,2014-01-27 04:45:00,
2014-01-26 22:50:00,-4.9,-13.5,29.99,North,0,0.0,0.0,66,0.00,,,0.00,WUHU216HW,2014-01-27 04:50:00,
2014-01-26 22:55:00,-5.2,-13.9,30.00,North,0,0.0,0.0,66,0.00,,,0.00,WUHU216HW,2014-01-27 04:55:00,
2014-01-26 23:00:00,-5.4,-14.0,30.00,North,0,0.0,0.0,66,0.00,,,0.00,WUHU216HW,2014-01-27 05:00:00,
2014-01-26 23:01:00,-5.4,-14.0,30.00,North,0,0.0,0.0,66,0.00,,,0.00,WUHU216HW,2014-01-27 05:01:00,
2014-01-26 23:06:00,-5.4,-14.0,30.00,North,0,0.0,0.0,66,0.00,,,0.00,WUHU216HW,2014-01-27 05:06:00,
2014-01-26 23:11:00,-5.6,-14.2,30.01,North,0,0.0,0.0,66,0.00,,,0.00,WUHU216HW,2014-01-27 05:11:00,
2014-01-26 23:16:00,-5.9,-14.5,30.01,North,0,0.0,0.0,66,0.00,,,0.00,WUHU216HW,2014-01-27 05:16:00,
2014-01-26 23:21:00,-6.1,-14.7,30.02,North,0,0.0,0.0,66,0.00,,,0.00,WUHU216HW,2014-01-27 05:21:00,
2014-01-26 23:26:00,-6.1,-14.7,30.02,North,0,0.0,0.0,66,0.00,,,0.00,WUHU216HW,2014-01-27 05:26:00,
2014-01-26 23:31:00,-6.3,-14.8,30.02,North,0,0.0,0.0,66,0.00,,,0.00,WUHU216HW,2014-01-27 05:31:00,
2014-01-26 23:36:00,-6.5,-15.0,30.02,North,0,0.0,0.0,66,0.00,,,0.00,WUHU216HW,2014-01-27 05:36:00,
2014-01-26 23:41:00,-6.5,-15.0,30.03,North,0,0.0,0.0,66,0.00,,,0.00,WUHU216HW,2014-01-27 05:41:00,
2014-01-26 23:46:00,-6.5,-15.0,30.03,North,0,0.0,0.0,66,0.00,,,0.00,WUHU216HW,2014-01-27 05:46:00,
2014-01-26 23:51:00,-6.8,-15.3,30.03,North,0,0.0,0.0,66,0.00,,,0.00,WUHU216HW,2014-01-27 05:51:00,
2014-01-26 23:56:00,-6.8,-15.3,30.04,North,0,0.0,0.0,66,0.00,,,0.00,WUHU216HW,2014-01-27 05:56:00,